Location: Great Snoring
(52.8667°N, 0.8833°E)
Time: 15:35:48
(UTC+00:00)

SPOT 3 Rocket - Pass Details

Date: 19 May 2025
Orbit: 775 x 790 km, 98.5° (Epoch: 18 June)

Event Time Altitude Azimuth Distance (km) Brightness Sun altitude
Exits shadow 21:43:36 10° 184° (S) 2,305 5.5 -11.9°
Maximum altitude 21:48:32 51° 260° (W) 975 4.2 -12.3°
Drops below altitude 10° 21:53:33 10° 336° (NNW) 2,338 7.5 -12.7°
Sets 21:55:57 0° 342° (NNW) 3,270 8.6 -12.9°
